Other Surface Observations
Issued by NWS

Home | Current Version | Previous Version | Text Only | Print | Product List | Glossary On
Versions: 1 2 3 4 5 6 7 8 9 10 11 12 13 14 15 16 17 18 19 20 21 22 23 24 25 26 27 28 29 30 31 32 33 34 35 36 37 38 39 40 41 42 43 44 45 46 47 48 49 50
000
SXUS52 KTAE 220319
OSOTAE
OSOTAE
North Florida/South Alabama/Southwest Georgia Weather Roundup
National Weather Service Tallahassee Florida
1100 PM EDT THU SEP 21 2017

Note: "fair" indicates few or no clouds below 12,000 feet with no
significant weather and/or obstructions to visibility.

!FLZ017-115-028-034-025-220400
...North Florida...

CITY           SKY/WX    TMP DP  RH WIND       PRES   REMARKS
TALLAHASSEE    MOCLDY    72  72 100 N5        30.00R
APALACHICOLA   PTCLDY    73  73 100 NE5       29.98R
PERRY          NOT AVBL
CROSS CITY     CLEAR     73  71  92 NE3       30.03R
JACKSONVILLE   MOCLDY    74  72  93 E6        29.99S
$$

!FLZ112-006-005-002-011-220400
...Florida Panhandle...

CITY           SKY/WX    TMP DP  RH WIND       PRES   REMARKS
MARIANNA       PTCLDY    72  71  97 CALM      30.00R
BONIFAY        NOT AVBL
PANAMA CITY NW FAIR      73  71  93 CALM      29.99R
TYNDALL AFB    PTCLDY    75  70  86 E3        30.00R
TYND DRONE APT MOCLDY    73  71  91 CALM      29.99R
DE FUNIAK SPR  NOT AVBL
EGLIN AFB      PTCLDY    76  70  83 CALM      29.99R
DESTIN         PTCLDY    79  72  79 CALM      29.99R
HURLBURT       PTCLDY    75  68  78 CALM      29.98R
CRESTVIEW      CLEAR     74  72  93 CALM      30.01R FOG
PENSACOLA      CLOUDY    81  75  82 CALM      29.99R
$$

!ALZ063-066-220400
...South Alabama...

CITY           SKY/WX    TMP DP  RH WIND       PRES   REMARKS
DOTHAN         CLEAR     73  72  96 SE6       30.04R
OZARK CAIRNS   CLEAR     73  71  94 CALM      29.99S
FT RUCKER HELI CLEAR     71  71  98 CALM      29.99S
RUCKER HELI 3  FAIR      73  70  91 CALM      30.00R
RUCKER HELI 2  FAIR      72  70  95 CALM      29.99S
FLORALA APT    NOT AVBL
ANDALUSIA      CLEAR     76  71  85 CALM      30.00R
TROY           CLEAR     72  72 100 SW3       30.01R FOG
EUFALA         FAIR      73  72  96 CALM      29.99R
MOBILE         PTCLDY    75  71  87 W5        29.99S
$$

!GAZ120>161-220400
...Southwest and South Central Georgia...

CITY           SKY/WX    TMP DP  RH WIND       PRES   REMARKS
THOMASVILLE    FAIR      70  70 100 CALM      30.02S
BAINBRIDGE     PTCLDY    73  73 100 NW3       30.01R
MOODY AFB      PTCLDY    71  70  98 CALM      30.00R
VALDOSTA       CLOUDY    72  71  97 N5        30.01R
MOULTRIE       PTCLDY    72  68  88 CALM      30.03R
BLAKELY        CLEAR     75  70  83 CALM      30.00S
ALBANY         CLOUDY    75  69  81 CALM      30.03R
TIFTON         FAIR      70  70 100 CALM      30.01S
FITZGERALD     FAIR      73  69  86 CALM      30.04S
CORDELE        FAIR      76  73  91 CALM      30.03R
AMERICUS       FAIR      70  70 100 CALM      30.04R
HOMERVILLE     FAIR      72  70  94 CALM      30.02R
$$

!GMZ750-755-770-775-220400
...Coastal and Buoy Obs...

STATION/POSITION TIME  TEMP    WIND        PRES    VSBY  WAVE
                       AIR SEA DIR/SP/G                  HT/PER
                 (UTC) (F)     (DEG/KT/KT) (MB)    (MI)  (FT/S)
KEATON BEACH     0300   73      30/  2/  4 1015.5R
CEDAR KEY        0300   80      70/  9/ 10 1015.5R
C TOWER          0300   79                 1016.0R
APALACHICOLA BUO 0250   82 83   40/ 10/ 12 1014.4R         1
PANAMA CITY BUOY 0250   83 83   40/  8/ 10 1014.9R         1/ 5
MOBILE BUOY      0300   82 85  140/  2/  4 1015.3
ORANGE BCH AL BU 0250   82 84     CALM     1015.1R         1
$$




USA.gov is the U.S. government's official web portal to all federal, state and local government web resources and services.